Location: Goettingen
(51.5300°N, 9.9433°E)
Time: 22:29:18
(UTC+01:00)

ISS - Pass Details

Date: 01 December 2024
Orbit: 411 x 421 km, 51.6° (Epoch: 03 December)

Event Time Altitude Azimuth Distance (km) Brightness Sun altitude
Rises 16:54:11 0° 283° (WNW) 2,374 0.9 -6.1°
Reaches altitude 10° 16:56:18 10° 279° (W) 1,508 0.0 -6.4°
Maximum altitude 16:59:38 56° 200° (SSW) 508 -3.0 -6.9°
Drops below altitude 10° 17:02:57 10° 122° (ESE) 1,504 -1.2 -7.3°
Sets 17:05:04 0° 118° (ESE) 2,366 -0.3 -7.6°
